GE 8

operational
NORAD ID: 26639 Int'l Des: 2000-081 Owner: AMCG Country: US
HEOCIRCULAR

About GE 8

Description loading...

Live Position

Loading 3D Globe...

Upcoming Passes

Altitude History

Altitude vs Time

uPlot chart will show altitude changes over time

Two-Line Element Set

1 26639U 00081B 26062.03439020 -.00000057 00000-0 00000+0 0 9994
2 26639 5.8485 73.8516 0008037 242.5953 309.7155 0.99147589 92133
Epoch: Mar 3, 2026 • Age: 11 hours

Current Status

Altitude 36112.8 km
Velocity 3.06 km/s
Sub-Earth Point -1.35°S, 91.39°E
Launch Date Dec 20, 2000
Age 25.1 years
Type other

Technical Details

Classification Payload
Mass 2015.00 kg
Dry Mass 919.00 kg
Total Mass 2015.00 kg
Length 4.10 m
Diameter 3.60 m
Span 14.50 m
Shape Box + 2 Pan
Manufacturer LMCSS
Bus Type A2100A
Phase Status Unknown Active Status
Owner/State AMCG/US

Large Constellations

Loading constellations...